Year,Month,Day,Hour,Minute,Value (Times are PST for temperature in C)
2003,07,28,00,00,17.50
2003,07,28,00,01,17.40
2003,07,28,00,02,17.30
2003,07,28,00,03,17.30
2003,07,28,00,04,17.20
2003,07,28,00,05,17.10
2003,07,28,00,06,17.00
2003,07,28,00,07,17.00
2003,07,28,00,08,17.00
2003,07,28,00,09,16.90
2003,07,28,00,10,16.80
2003,07,28,00,11,16.70
2003,07,28,00,12,16.60
2003,07,28,00,13,16.70
2003,07,28,00,14,16.70
2003,07,28,00,15,16.80
2003,07,28,00,16,16.90
2003,07,28,00,17,16.90
2003,07,28,00,18,16.90
2003,07,28,00,19,16.90
2003,07,28,00,20,17.00
2003,07,28,00,21,17.00
2003,07,28,00,22,17.10
2003,07,28,00,23,17.20
2003,07,28,00,24,17.30
2003,07,28,00,25,17.30
2003,07,28,00,26,17.30
2003,07,28,00,27,17.30
2003,07,28,00,28,17.30
2003,07,28,00,29,17.30
2003,07,28,00,30,17.30
2003,07,28,00,31,17.30
2003,07,28,00,32,17.30
2003,07,28,00,33,17.30
2003,07,28,00,34,17.40
2003,07,28,00,35,17.40
2003,07,28,00,36,17.40
2003,07,28,00,37,17.40
2003,07,28,00,38,17.40
2003,07,28,00,39,17.40
2003,07,28,00,40,17.40
2003,07,28,00,41,17.40
2003,07,28,00,42,17.40
2003,07,28,00,43,17.40
2003,07,28,00,44,17.50
2003,07,28,00,45,17.50
2003,07,28,00,46,17.40
2003,07,28,00,47,17.30
2003,07,28,00,48,17.30
2003,07,28,00,49,17.30
2003,07,28,00,50,17.40
2003,07,28,00,51,17.40
2003,07,28,00,52,17.40
2003,07,28,00,53,17.50
2003,07,28,00,54,17.50
2003,07,28,00,55,17.50
2003,07,28,00,56,17.50
2003,07,28,00,57,17.50
2003,07,28,00,58,17.50
2003,07,28,00,59,17.50
2003,07,28,01,00,17.60
2003,07,28,01,01,17.60
2003,07,28,01,02,17.60
2003,07,28,01,03,17.50
2003,07,28,01,04,17.50
2003,07,28,01,05,17.40
2003,07,28,01,06,17.30
2003,07,28,01,07,17.30
2003,07,28,01,08,17.10
2003,07,28,01,09,17.00
2003,07,28,01,10,16.90
2003,07,28,01,11,16.80
2003,07,28,01,12,16.70
2003,07,28,01,13,16.60
2003,07,28,01,14,16.60
2003,07,28,01,15,16.60
2003,07,28,01,16,16.60
2003,07,28,01,17,16.60
2003,07,28,01,18,16.60
2003,07,28,01,19,16.50
2003,07,28,01,20,16.50
2003,07,28,01,21,16.60
2003,07,28,01,22,16.60
2003,07,28,01,23,16.70
2003,07,28,01,24,16.80
2003,07,28,01,25,16.80
2003,07,28,01,26,16.90
2003,07,28,01,27,16.90
2003,07,28,01,28,16.90
2003,07,28,01,29,16.90
2003,07,28,01,30,17.00
2003,07,28,01,31,17.00
2003,07,28,01,32,16.90
2003,07,28,01,33,16.90
2003,07,28,01,34,16.80
2003,07,28,01,35,16.80
2003,07,28,01,36,16.70
2003,07,28,01,37,16.70
2003,07,28,01,38,16.70
2003,07,28,01,39,16.70
2003,07,28,01,40,16.70
2003,07,28,01,41,16.70
2003,07,28,01,42,16.60
2003,07,28,01,43,16.60
2003,07,28,01,44,16.60
2003,07,28,01,45,16.60
2003,07,28,01,46,16.50
2003,07,28,01,47,16.50
2003,07,28,01,48,16.60
2003,07,28,01,49,16.60
2003,07,28,01,50,16.50
2003,07,28,01,51,16.40
2003,07,28,01,52,16.40
2003,07,28,01,53,16.40
2003,07,28,01,54,16.40
2003,07,28,01,55,16.40
2003,07,28,01,56,16.50
2003,07,28,01,57,16.60
2003,07,28,01,58,16.60
2003,07,28,01,59,16.60
2003,07,28,02,00,16.60
2003,07,28,02,01,16.70
2003,07,28,02,02,16.70
2003,07,28,02,03,16.70
2003,07,28,02,04,16.70
2003,07,28,02,05,16.70
2003,07,28,02,06,16.70
2003,07,28,02,07,16.70
2003,07,28,02,08,16.70
2003,07,28,02,09,16.70
2003,07,28,02,10,16.70
2003,07,28,02,11,16.70
2003,07,28,02,12,16.70
2003,07,28,02,13,16.70
2003,07,28,02,14,16.70
2003,07,28,02,15,16.70
2003,07,28,02,16,16.70
2003,07,28,02,17,16.70
2003,07,28,02,18,16.70
2003,07,28,02,19,16.70
2003,07,28,02,20,16.60
2003,07,28,02,21,16.60
2003,07,28,02,22,16.60
2003,07,28,02,23,16.60
2003,07,28,02,24,16.70
2003,07,28,02,25,16.70
2003,07,28,02,26,16.70
2003,07,28,02,27,16.70
2003,07,28,02,28,16.70
2003,07,28,02,29,16.70
2003,07,28,02,30,16.70
2003,07,28,02,31,16.70
2003,07,28,02,32,16.70
2003,07,28,02,33,16.70
2003,07,28,02,34,16.70
2003,07,28,02,35,16.70
2003,07,28,02,36,16.60
2003,07,28,02,37,16.60
2003,07,28,02,38,16.50
2003,07,28,02,39,16.40
2003,07,28,02,40,16.40
2003,07,28,02,41,16.40
2003,07,28,02,42,16.30
2003,07,28,02,43,16.30
2003,07,28,02,44,16.30
2003,07,28,02,45,16.20
2003,07,28,02,46,16.30
2003,07,28,02,47,16.20
2003,07,28,02,48,16.20
2003,07,28,02,49,16.10
2003,07,28,02,50,16.10
2003,07,28,02,51,16.10
2003,07,28,02,52,16.10
2003,07,28,02,53,16.10
2003,07,28,02,54,16.10
2003,07,28,02,55,16.10
2003,07,28,02,56,16.10
2003,07,28,02,57,16.10
2003,07,28,02,58,16.20
2003,07,28,02,59,16.20
2003,07,28,03,00,16.30
2003,07,28,03,01,16.40
2003,07,28,03,02,16.30
2003,07,28,03,03,16.30
2003,07,28,03,04,16.30
2003,07,28,03,05,16.30
2003,07,28,03,06,16.30
2003,07,28,03,07,16.30
2003,07,28,03,08,16.20
2003,07,28,03,09,16.10
2003,07,28,03,10,16.10
2003,07,28,03,11,16.00
2003,07,28,03,12,16.00
2003,07,28,03,13,16.10
2003,07,28,03,14,16.10
2003,07,28,03,15,16.10
2003,07,28,03,16,16.10
2003,07,28,03,17,16.00
2003,07,28,03,18,16.00
2003,07,28,03,19,15.90
2003,07,28,03,20,15.90
2003,07,28,03,21,15.90
2003,07,28,03,22,16.10
2003,07,28,03,23,16.10
2003,07,28,03,24,16.10
2003,07,28,03,25,16.00
2003,07,28,03,26,15.90
2003,07,28,03,27,15.80
2003,07,28,03,28,15.80
2003,07,28,03,29,15.90
2003,07,28,03,30,15.90
2003,07,28,03,31,15.90
2003,07,28,03,32,15.80
2003,07,28,03,33,15.90
2003,07,28,03,34,15.90
2003,07,28,03,35,15.90
2003,07,28,03,36,15.90
2003,07,28,03,37,16.00
2003,07,28,03,38,15.90
2003,07,28,03,39,16.00
2003,07,28,03,40,16.00
2003,07,28,03,41,15.90
2003,07,28,03,42,15.90
2003,07,28,03,43,15.80
2003,07,28,03,44,15.80
2003,07,28,03,45,15.70
2003,07,28,03,46,15.60
2003,07,28,03,47,15.50
2003,07,28,03,48,15.50
2003,07,28,03,49,15.30
2003,07,28,03,50,15.20
2003,07,28,03,51,15.20
2003,07,28,03,52,15.10
2003,07,28,03,53,15.00
2003,07,28,03,54,15.00
2003,07,28,03,55,14.90
2003,07,28,03,56,14.80
2003,07,28,03,57,14.80
2003,07,28,03,58,14.80
2003,07,28,03,59,14.80
2003,07,28,04,00,14.70
2003,07,28,04,01,14.70
2003,07,28,04,02,14.70
2003,07,28,04,03,14.70
2003,07,28,04,04,14.70
2003,07,28,04,05,14.80
2003,07,28,04,06,14.70
2003,07,28,04,07,14.70
2003,07,28,04,08,14.70
2003,07,28,04,09,14.70
2003,07,28,04,10,14.80
2003,07,28,04,11,14.80
2003,07,28,04,12,14.80
2003,07,28,04,13,14.80
2003,07,28,04,14,14.80
2003,07,28,04,15,14.80
2003,07,28,04,16,14.80
2003,07,28,04,17,14.80
2003,07,28,04,18,14.80
2003,07,28,04,19,14.80
2003,07,28,04,20,14.80
2003,07,28,04,21,14.80
2003,07,28,04,22,14.70
2003,07,28,04,23,14.70
2003,07,28,04,24,14.80
2003,07,28,04,25,14.80
2003,07,28,04,26,14.80
2003,07,28,04,27,14.80
2003,07,28,04,28,14.80
2003,07,28,04,29,14.80
2003,07,28,04,30,14.80
2003,07,28,04,31,14.80
2003,07,28,04,32,14.80
2003,07,28,04,33,14.80
2003,07,28,04,34,14.70
2003,07,28,04,35,14.70
2003,07,28,04,36,14.70
2003,07,28,04,37,14.70
2003,07,28,04,38,14.70
2003,07,28,04,39,14.70
2003,07,28,04,40,14.80
2003,07,28,04,41,14.80
2003,07,28,04,42,14.80
2003,07,28,04,43,14.80
2003,07,28,04,44,14.80
2003,07,28,04,45,14.80
2003,07,28,04,46,14.80
2003,07,28,04,47,14.80
2003,07,28,04,48,14.80
2003,07,28,04,49,14.80
2003,07,28,04,50,14.80
2003,07,28,04,51,14.80
2003,07,28,04,52,14.80
2003,07,28,04,53,14.80
2003,07,28,04,54,14.80
2003,07,28,04,55,14.80
2003,07,28,04,56,14.70
2003,07,28,04,57,14.70
2003,07,28,04,58,14.70
2003,07,28,04,59,14.70
2003,07,28,05,00,14.70
2003,07,28,05,01,14.60
2003,07,28,05,02,14.60
2003,07,28,05,03,14.50
2003,07,28,05,04,14.50
2003,07,28,05,05,14.50
2003,07,28,05,06,14.60
2003,07,28,05,07,14.60
2003,07,28,05,08,14.60
2003,07,28,05,09,14.60
2003,07,28,05,10,14.50
2003,07,28,05,11,14.60
2003,07,28,05,12,14.60
2003,07,28,05,13,14.60
2003,07,28,05,14,14.60
2003,07,28,05,15,14.60
2003,07,28,05,16,14.60
2003,07,28,05,17,14.70
2003,07,28,05,18,14.70
2003,07,28,05,19,14.80
2003,07,28,05,20,14.80
2003,07,28,05,21,14.80
2003,07,28,05,22,14.80
2003,07,28,05,23,14.80
2003,07,28,05,24,14.80
2003,07,28,05,25,14.80
2003,07,28,05,26,14.80
2003,07,28,05,27,14.80
2003,07,28,05,28,14.80
2003,07,28,05,29,14.80
2003,07,28,05,30,14.80
2003,07,28,05,31,14.70
2003,07,28,05,32,14.70
2003,07,28,05,33,14.70
2003,07,28,05,34,14.70
2003,07,28,05,35,14.70
2003,07,28,05,36,14.70
2003,07,28,05,37,14.60
2003,07,28,05,38,14.60
2003,07,28,05,39,14.60
2003,07,28,05,40,14.60
2003,07,28,05,41,14.60
2003,07,28,05,42,14.60
2003,07,28,05,43,14.60
2003,07,28,05,44,14.60
2003,07,28,05,45,14.60
2003,07,28,05,46,14.60
2003,07,28,05,47,14.70
2003,07,28,05,48,14.70
2003,07,28,05,49,14.70
2003,07,28,05,50,14.70
2003,07,28,05,51,14.70
2003,07,28,05,52,14.70
2003,07,28,05,53,14.70
2003,07,28,05,54,14.70
2003,07,28,05,55,14.80
2003,07,28,05,56,14.80
2003,07,28,05,57,14.80
2003,07,28,05,58,14.70
2003,07,28,05,59,14.70
2003,07,28,06,00,14.70
2003,07,28,06,01,14.60
2003,07,28,06,02,14.60
2003,07,28,06,03,14.60
2003,07,28,06,04,14.60
2003,07,28,06,05,14.60
2003,07,28,06,06,14.60
2003,07,28,06,07,14.60
2003,07,28,06,08,14.60
2003,07,28,06,09,14.70
2003,07,28,06,10,14.70
2003,07,28,06,11,14.80
2003,07,28,06,12,14.80
2003,07,28,06,13,14.80
2003,07,28,06,14,14.90
2003,07,28,06,15,15.00
2003,07,28,06,16,15.10
2003,07,28,06,17,15.10
2003,07,28,06,18,15.20
2003,07,28,06,19,15.20
2003,07,28,06,20,15.30
2003,07,28,06,21,15.30
2003,07,28,06,22,15.30
2003,07,28,06,23,15.40
2003,07,28,06,24,15.50
2003,07,28,06,25,15.50
2003,07,28,06,26,15.60
2003,07,28,06,27,15.60
2003,07,28,06,28,15.70
2003,07,28,06,29,15.80
2003,07,28,06,30,15.80
2003,07,28,06,31,15.90
2003,07,28,06,32,16.00
2003,07,28,06,33,16.10
2003,07,28,06,34,16.10
2003,07,28,06,35,16.20
2003,07,28,06,36,16.30
2003,07,28,06,37,16.40
2003,07,28,06,38,16.50
2003,07,28,06,39,16.60
2003,07,28,06,40,16.70
2003,07,28,06,41,16.70
2003,07,28,06,42,16.80
2003,07,28,06,43,16.80
2003,07,28,06,44,16.90
2003,07,28,06,45,17.00
2003,07,28,06,46,17.10
2003,07,28,06,47,17.20
2003,07,28,06,48,17.20
2003,07,28,06,49,17.30
2003,07,28,06,50,17.40
2003,07,28,06,51,17.50
2003,07,28,06,52,17.50
2003,07,28,06,53,17.60
2003,07,28,06,54,17.60
2003,07,28,06,55,17.60
2003,07,28,06,56,17.70
2003,07,28,06,57,17.80
2003,07,28,06,58,17.90
2003,07,28,06,59,17.90
2003,07,28,07,00,17.90
2003,07,28,07,01,17.90
2003,07,28,07,02,17.90
2003,07,28,07,03,18.00
2003,07,28,07,04,18.10
2003,07,28,07,05,18.10
2003,07,28,07,06,18.20
2003,07,28,07,07,18.20
2003,07,28,07,08,18.30
2003,07,28,07,09,18.30
2003,07,28,07,10,18.50
2003,07,28,07,11,18.50
2003,07,28,07,12,18.60
2003,07,28,07,13,18.70
2003,07,28,07,14,18.70
2003,07,28,07,15,18.80
2003,07,28,07,16,18.80
2003,07,28,07,17,18.90
2003,07,28,07,18,18.90
2003,07,28,07,19,19.10
2003,07,28,07,20,19.10
2003,07,28,07,21,19.10
2003,07,28,07,22,19.20
2003,07,28,07,23,19.20
2003,07,28,07,24,19.30
2003,07,28,07,25,19.40
2003,07,28,07,26,19.50
2003,07,28,07,27,19.60
2003,07,28,07,28,19.80
2003,07,28,07,29,19.90
2003,07,28,07,30,19.90
2003,07,28,07,31,20.00
2003,07,28,07,32,20.10
2003,07,28,07,33,20.00
2003,07,28,07,34,19.90
2003,07,28,07,35,19.80
2003,07,28,07,36,19.60
2003,07,28,07,37,19.50
2003,07,28,07,38,19.40
2003,07,28,07,39,19.30
2003,07,28,07,40,19.20
2003,07,28,07,41,19.10
2003,07,28,07,42,19.10
2003,07,28,07,43,19.10
2003,07,28,07,44,19.10
2003,07,28,07,45,19.10
2003,07,28,07,46,19.10
2003,07,28,07,47,19.20
2003,07,28,07,48,19.30
2003,07,28,07,49,19.40
2003,07,28,07,50,19.50
2003,07,28,07,51,19.60
2003,07,28,07,52,19.60
2003,07,28,07,53,19.70
2003,07,28,07,54,19.80
2003,07,28,07,55,19.80
2003,07,28,07,56,19.70
2003,07,28,07,57,19.70
2003,07,28,07,58,19.60
2003,07,28,07,59,19.60
2003,07,28,08,00,19.60
2003,07,28,08,01,19.60
2003,07,28,08,02,19.60
2003,07,28,08,03,19.70
2003,07,28,08,04,19.70
2003,07,28,08,05,19.70
2003,07,28,08,06,19.60
2003,07,28,08,07,19.60
2003,07,28,08,08,19.70
2003,07,28,08,09,19.80
2003,07,28,08,10,19.80
2003,07,28,08,11,19.80
2003,07,28,08,12,19.80
2003,07,28,08,13,19.80
2003,07,28,08,14,19.90
2003,07,28,08,15,19.90
2003,07,28,08,16,19.90
2003,07,28,08,17,19.90
2003,07,28,08,18,19.90
2003,07,28,08,19,19.90
2003,07,28,08,20,19.90
2003,07,28,08,21,19.80
2003,07,28,08,22,19.80
2003,07,28,08,23,19.80
2003,07,28,08,24,19.90
2003,07,28,08,25,19.90
2003,07,28,08,26,19.90
2003,07,28,08,27,19.90
2003,07,28,08,28,19.90
2003,07,28,08,29,19.90
2003,07,28,08,30,20.00
2003,07,28,08,31,20.10
2003,07,28,08,32,20.20
2003,07,28,08,33,20.30
2003,07,28,08,34,20.30
2003,07,28,08,35,20.20
2003,07,28,08,36,20.20
2003,07,28,08,37,20.30
2003,07,28,08,38,20.30
2003,07,28,08,39,20.30
2003,07,28,08,40,20.30
2003,07,28,08,41,20.30
2003,07,28,08,42,20.20
2003,07,28,08,43,20.20
2003,07,28,08,44,20.20
2003,07,28,08,45,20.20
2003,07,28,08,46,20.20
2003,07,28,08,47,20.20
2003,07,28,08,48,20.20
2003,07,28,08,49,20.30
2003,07,28,08,50,20.30
2003,07,28,08,51,20.40
2003,07,28,08,52,20.50
2003,07,28,08,53,20.40
2003,07,28,08,54,20.40
2003,07,28,08,55,20.40
2003,07,28,08,56,20.40
2003,07,28,08,57,20.40
2003,07,28,08,58,20.40
2003,07,28,08,59,20.40
2003,07,28,09,00,20.30
2003,07,28,09,01,20.20
2003,07,28,09,02,20.30
2003,07,28,09,03,20.40
2003,07,28,09,04,20.40
2003,07,28,09,05,20.50
2003,07,28,09,06,20.50
2003,07,28,09,07,20.50
2003,07,28,09,08,20.50
2003,07,28,09,09,20.30
2003,07,28,09,10,20.20
2003,07,28,09,11,20.20
2003,07,28,09,12,20.00
2003,07,28,09,13,19.90
2003,07,28,09,14,20.00
2003,07,28,09,15,20.10
2003,07,28,09,16,20.40
2003,07,28,09,17,20.50
2003,07,28,09,18,20.70
2003,07,28,09,19,20.80
2003,07,28,09,20,20.90
2003,07,28,09,21,20.90
2003,07,28,09,22,20.80
2003,07,28,09,23,20.70
2003,07,28,09,24,20.60
2003,07,28,09,25,20.70
2003,07,28,09,26,20.70
2003,07,28,09,27,20.70
2003,07,28,09,28,20.60
2003,07,28,09,29,20.50
2003,07,28,09,30,20.50
2003,07,28,09,31,20.50
2003,07,28,09,32,20.50
2003,07,28,09,33,20.50
2003,07,28,09,34,20.40
2003,07,28,09,35,20.50
2003,07,28,09,36,20.50
2003,07,28,09,37,20.60
2003,07,28,09,38,20.80
2003,07,28,09,39,20.90
2003,07,28,09,40,21.00
2003,07,28,09,41,21.00
2003,07,28,09,42,21.00
2003,07,28,09,43,21.00
2003,07,28,09,44,21.10
2003,07,28,09,45,21.30
2003,07,28,09,46,21.30
2003,07,28,09,47,21.50
2003,07,28,09,48,21.60
2003,07,28,09,49,21.60
2003,07,28,09,50,21.60
2003,07,28,09,51,21.50
2003,07,28,09,52,21.30
2003,07,28,09,53,21.30
2003,07,28,09,54,21.40
2003,07,28,09,55,21.40
2003,07,28,09,56,21.40
2003,07,28,09,57,21.30
2003,07,28,09,58,21.30
2003,07,28,09,59,21.30
2003,07,28,10,00,21.30
2003,07,28,10,01,21.30
2003,07,28,10,02,21.40
2003,07,28,10,03,21.50
2003,07,28,10,04,21.60
2003,07,28,10,05,21.60
2003,07,28,10,06,21.80
2003,07,28,10,07,21.90
2003,07,28,10,08,21.90
2003,07,28,10,09,21.90
2003,07,28,10,10,21.90
2003,07,28,10,11,21.90
2003,07,28,10,12,21.90
2003,07,28,10,13,21.90
2003,07,28,10,14,22.00
2003,07,28,10,15,22.00
2003,07,28,10,16,22.10
2003,07,28,10,17,22.10
2003,07,28,10,18,22.10
2003,07,28,10,19,22.10
2003,07,28,10,20,22.20
2003,07,28,10,21,22.20
2003,07,28,10,22,22.20
2003,07,28,10,23,22.20
2003,07,28,10,24,22.10
2003,07,28,10,25,22.00
2003,07,28,10,26,22.00
2003,07,28,10,27,22.00
2003,07,28,10,28,22.00
2003,07,28,10,29,22.00
2003,07,28,10,30,22.10
2003,07,28,10,31,22.10
2003,07,28,10,32,22.10
2003,07,28,10,33,22.00
2003,07,28,10,34,21.80
2003,07,28,10,35,21.70
2003,07,28,10,36,21.70
2003,07,28,10,37,21.70
2003,07,28,10,38,21.70
2003,07,28,10,39,21.60
2003,07,28,10,40,21.60
2003,07,28,10,41,21.70
2003,07,28,10,42,21.70
2003,07,28,10,43,21.70
2003,07,28,10,44,21.70
2003,07,28,10,45,21.80
2003,07,28,10,46,21.90
2003,07,28,10,47,22.00
2003,07,28,10,48,22.10
2003,07,28,10,49,22.10
2003,07,28,10,50,22.20
2003,07,28,10,51,22.30
2003,07,28,10,52,22.30
2003,07,28,10,53,22.30
2003,07,28,10,54,22.50
2003,07,28,10,55,22.60
2003,07,28,10,56,22.60
2003,07,28,10,57,22.60
2003,07,28,10,58,22.60
2003,07,28,10,59,22.40
2003,07,28,11,00,22.10
2003,07,28,11,01,22.00
2003,07,28,11,02,22.00
2003,07,28,11,03,22.20
2003,07,28,11,04,22.20
2003,07,28,11,05,22.30
2003,07,28,11,06,22.20
2003,07,28,11,07,22.20
2003,07,28,11,08,22.00
2003,07,28,11,09,22.10
2003,07,28,11,10,22.10
2003,07,28,11,11,22.30
2003,07,28,11,12,22.50
2003,07,28,11,13,22.50
2003,07,28,11,14,22.30
2003,07,28,11,15,22.10
2003,07,28,11,16,22.00
2003,07,28,11,17,22.00
2003,07,28,11,18,22.20
2003,07,28,11,19,22.30
2003,07,28,11,20,22.50
2003,07,28,11,21,22.60
2003,07,28,11,22,22.70
2003,07,28,11,23,22.90
2003,07,28,11,24,23.00
2003,07,28,11,25,23.10
2003,07,28,11,26,23.10
2003,07,28,11,27,23.10
2003,07,28,11,28,23.10
2003,07,28,11,29,22.90
2003,07,28,11,30,22.90
2003,07,28,11,31,23.00
2003,07,28,11,32,23.10
2003,07,28,11,33,23.10
2003,07,28,11,34,23.00
2003,07,28,11,35,22.90
2003,07,28,11,36,22.90
2003,07,28,11,37,22.90
2003,07,28,11,38,22.80
2003,07,28,11,39,22.80
2003,07,28,11,40,22.90
2003,07,28,11,41,23.00
2003,07,28,11,42,22.90
2003,07,28,11,43,23.00
2003,07,28,11,44,23.10
2003,07,28,11,45,23.30
2003,07,28,11,46,23.40
2003,07,28,11,47,23.40
2003,07,28,11,48,23.40
2003,07,28,11,49,23.50
2003,07,28,11,50,23.60
2003,07,28,11,51,23.70
2003,07,28,11,52,23.90
2003,07,28,11,53,24.00
2003,07,28,11,54,24.10
2003,07,28,11,55,24.10
2003,07,28,11,56,24.10
2003,07,28,11,57,24.10
2003,07,28,11,58,24.00
2003,07,28,11,59,23.90
2003,07,28,12,00,23.90
2003,07,28,12,01,23.90
2003,07,28,12,02,23.90
2003,07,28,12,03,23.90
2003,07,28,12,04,23.90
2003,07,28,12,05,23.90
2003,07,28,12,06,24.00
2003,07,28,12,07,24.10
2003,07,28,12,08,24.20
2003,07,28,12,09,24.20
2003,07,28,12,10,24.30
2003,07,28,12,11,24.30
2003,07,28,12,12,24.40
2003,07,28,12,13,24.30
2003,07,28,12,14,24.30
2003,07,28,12,15,24.20
2003,07,28,12,16,24.20
2003,07,28,12,17,24.30
2003,07,28,12,18,24.40
2003,07,28,12,19,24.40
2003,07,28,12,20,24.50
2003,07,28,12,21,24.50
2003,07,28,12,22,24.60
2003,07,28,12,23,24.70
2003,07,28,12,24,24.70
2003,07,28,12,25,24.70
2003,07,28,12,26,24.80
2003,07,28,12,27,24.80
2003,07,28,12,28,24.90
2003,07,28,12,29,24.90
2003,07,28,12,30,24.90
2003,07,28,12,31,24.80
2003,07,28,12,32,24.80
2003,07,28,12,33,24.80
2003,07,28,12,34,24.80
2003,07,28,12,35,24.80
2003,07,28,12,36,24.80
2003,07,28,12,37,24.90
2003,07,28,12,38,25.00
2003,07,28,12,39,24.80
2003,07,28,12,40,24.80
2003,07,28,12,41,24.60
2003,07,28,12,42,24.60
2003,07,28,12,43,24.60
2003,07,28,12,44,24.60
2003,07,28,12,45,24.70
2003,07,28,12,46,24.70
2003,07,28,12,47,24.80
2003,07,28,12,48,24.90
2003,07,28,12,49,24.90
2003,07,28,12,50,24.80
2003,07,28,12,51,24.90
2003,07,28,12,52,25.00
2003,07,28,12,53,25.00
2003,07,28,12,54,25.20
2003,07,28,12,55,25.30
2003,07,28,12,56,25.30
2003,07,28,12,57,25.40
2003,07,28,12,58,25.40
2003,07,28,12,59,25.40
2003,07,28,13,00,25.40
2003,07,28,13,01,25.40
2003,07,28,13,02,25.30
2003,07,28,13,03,25.10
2003,07,28,13,04,25.10
2003,07,28,13,05,25.00
2003,07,28,13,06,25.00
2003,07,28,13,07,25.00
2003,07,28,13,08,25.10
2003,07,28,13,09,25.10
2003,07,28,13,10,25.20
2003,07,28,13,11,25.30
2003,07,28,13,12,25.40
2003,07,28,13,13,25.40
2003,07,28,13,14,25.50
2003,07,28,13,15,25.60
2003,07,28,13,16,25.80
2003,07,28,13,17,25.90
2003,07,28,13,18,26.00
2003,07,28,13,19,26.00
2003,07,28,13,20,26.00
2003,07,28,13,21,26.10
2003,07,28,13,22,26.10
2003,07,28,13,23,26.10
2003,07,28,13,24,26.10
2003,07,28,13,25,26.20
2003,07,28,13,26,26.40
2003,07,28,13,27,26.40
2003,07,28,13,28,26.30
2003,07,28,13,29,26.30
2003,07,28,13,30,26.20
2003,07,28,13,31,26.40
2003,07,28,13,32,26.40
2003,07,28,13,33,26.40
2003,07,28,13,34,26.30
2003,07,28,13,35,26.00
2003,07,28,13,36,25.60
2003,07,28,13,37,25.30
2003,07,28,13,38,25.30
2003,07,28,13,39,25.40
2003,07,28,13,40,25.40
2003,07,28,13,41,25.60
2003,07,28,13,42,25.50
2003,07,28,13,43,25.50
2003,07,28,13,44,25.70
2003,07,28,13,45,25.80
2003,07,28,13,46,25.90
2003,07,28,13,47,26.00
2003,07,28,13,48,26.10
2003,07,28,13,49,26.10
2003,07,28,13,50,26.00
2003,07,28,13,51,25.80
2003,07,28,13,52,25.80
2003,07,28,13,53,25.50
2003,07,28,13,54,25.40
2003,07,28,13,55,25.30
2003,07,28,13,56,25.40
2003,07,28,13,57,25.60
2003,07,28,13,58,25.70
2003,07,28,13,59,25.80
2003,07,28,14,00,25.80
2003,07,28,14,01,25.80
2003,07,28,14,02,25.90
2003,07,28,14,03,26.00
2003,07,28,14,04,26.10
2003,07,28,14,05,26.30
2003,07,28,14,06,26.30
2003,07,28,14,07,26.30
2003,07,28,14,08,26.30
2003,07,28,14,09,26.20
2003,07,28,14,10,26.20
2003,07,28,14,11,26.30
2003,07,28,14,12,26.20
2003,07,28,14,13,26.40
2003,07,28,14,14,26.50
2003,07,28,14,15,26.60
2003,07,28,14,16,26.70
2003,07,28,14,17,26.80
2003,07,28,14,18,27.00
2003,07,28,14,19,27.20
2003,07,28,14,20,27.30
2003,07,28,14,21,27.30
2003,07,28,14,22,27.40
2003,07,28,14,23,27.30
2003,07,28,14,24,27.30
2003,07,28,14,25,27.30
2003,07,28,14,26,27.40
2003,07,28,14,27,27.30
2003,07,28,14,28,27.00
2003,07,28,14,29,26.80
2003,07,28,14,30,26.80
2003,07,28,14,31,26.70
2003,07,28,14,32,26.60
2003,07,28,14,33,26.70
2003,07,28,14,34,26.60
2003,07,28,14,35,26.50
2003,07,28,14,36,26.30
2003,07,28,14,37,26.40
2003,07,28,14,38,26.50
2003,07,28,14,39,26.60
2003,07,28,14,40,26.90
2003,07,28,14,41,27.00
2003,07,28,14,42,27.10
2003,07,28,14,43,27.20
2003,07,28,14,44,27.20
2003,07,28,14,45,27.30
2003,07,28,14,46,27.30
2003,07,28,14,47,27.40
2003,07,28,14,48,27.40
2003,07,28,14,49,27.30
2003,07,28,14,50,27.30
2003,07,28,14,51,27.20
2003,07,28,14,52,27.10
2003,07,28,14,53,26.90
2003,07,28,14,54,26.90
2003,07,28,14,55,26.80
2003,07,28,14,56,26.80
2003,07,28,14,57,26.80
2003,07,28,14,58,26.80
2003,07,28,14,59,26.80
2003,07,28,15,00,26.80
2003,07,28,15,01,26.80
2003,07,28,15,02,26.80
2003,07,28,15,03,26.70
2003,07,28,15,04,26.70
2003,07,28,15,05,26.80
2003,07,28,15,06,27.00
2003,07,28,15,07,27.20
2003,07,28,15,08,27.30
2003,07,28,15,09,27.30
2003,07,28,15,10,27.40
2003,07,28,15,11,27.40
2003,07,28,15,12,27.30
2003,07,28,15,13,27.40
2003,07,28,15,14,27.40
2003,07,28,15,15,27.50
2003,07,28,15,16,27.60
2003,07,28,15,17,27.50
2003,07,28,15,18,27.40
2003,07,28,15,19,27.30
2003,07,28,15,20,27.00
2003,07,28,15,21,26.80
2003,07,28,15,22,26.60
2003,07,28,15,23,26.60
2003,07,28,15,24,26.60
2003,07,28,15,25,26.50
2003,07,28,15,26,26.40
2003,07,28,15,27,26.50
2003,07,28,15,28,26.40
2003,07,28,15,29,26.30
2003,07,28,15,30,26.20
2003,07,28,15,31,26.00
2003,07,28,15,32,25.90
2003,07,28,15,33,25.80
2003,07,28,15,34,25.90
2003,07,28,15,35,25.90
2003,07,28,15,36,25.80
2003,07,28,15,37,25.90
2003,07,28,15,38,25.90
2003,07,28,15,39,26.00
2003,07,28,15,40,26.00
2003,07,28,15,41,25.90
2003,07,28,15,42,25.80
2003,07,28,15,43,25.90
2003,07,28,15,44,26.00
2003,07,28,15,45,26.10
2003,07,28,15,46,26.10
2003,07,28,15,47,26.10
2003,07,28,15,48,26.30
2003,07,28,15,49,26.30
2003,07,28,15,50,26.20
2003,07,28,15,51,26.20
2003,07,28,15,52,26.20
2003,07,28,15,53,26.20
2003,07,28,15,54,26.20
2003,07,28,15,55,26.20
2003,07,28,15,56,26.10
2003,07,28,15,57,26.20
2003,07,28,15,58,26.20
2003,07,28,15,59,26.10
2003,07,28,16,00,25.90
2003,07,28,16,01,25.90
2003,07,28,16,02,25.90
2003,07,28,16,03,25.90
2003,07,28,16,04,25.80
2003,07,28,16,05,25.90
2003,07,28,16,06,25.90
2003,07,28,16,07,26.10
2003,07,28,16,08,26.40
2003,07,28,16,09,26.50
2003,07,28,16,10,26.60
2003,07,28,16,11,26.70
2003,07,28,16,12,26.80
2003,07,28,16,13,26.80
2003,07,28,16,14,26.70
2003,07,28,16,15,26.60
2003,07,28,16,16,26.60
2003,07,28,16,17,26.80
2003,07,28,16,18,27.00
2003,07,28,16,19,27.00
2003,07,28,16,20,27.00
2003,07,28,16,21,26.90
2003,07,28,16,22,27.00
2003,07,28,16,23,27.10
2003,07,28,16,24,27.20
2003,07,28,16,25,27.20
2003,07,28,16,26,27.10
2003,07,28,16,27,27.00
2003,07,28,16,28,26.90
2003,07,28,16,29,26.90
2003,07,28,16,30,26.80
2003,07,28,16,31,26.70
2003,07,28,16,32,26.70
2003,07,28,16,33,26.70
2003,07,28,16,34,26.70
2003,07,28,16,35,26.70
2003,07,28,16,36,26.60
2003,07,28,16,37,26.60
2003,07,28,16,38,26.60
2003,07,28,16,39,26.60
2003,07,28,16,40,26.60
2003,07,28,16,41,26.60
2003,07,28,16,42,26.60
2003,07,28,16,43,26.60
2003,07,28,16,44,26.50
2003,07,28,16,45,26.50
2003,07,28,16,46,26.60
2003,07,28,16,47,26.60
2003,07,28,16,48,26.70
2003,07,28,16,49,26.80
2003,07,28,16,50,26.90
2003,07,28,16,51,27.10
2003,07,28,16,52,27.20
2003,07,28,16,53,27.30
2003,07,28,16,54,27.30
2003,07,28,16,55,27.40
2003,07,28,16,56,27.40
2003,07,28,16,57,27.40
2003,07,28,16,58,27.40
2003,07,28,16,59,27.40
2003,07,28,17,00,27.30
2003,07,28,17,01,27.20
2003,07,28,17,02,27.10
2003,07,28,17,03,27.00
2003,07,28,17,04,26.90
2003,07,28,17,05,26.70
2003,07,28,17,06,26.60
2003,07,28,17,07,26.60
2003,07,28,17,08,26.60
2003,07,28,17,09,26.70
2003,07,28,17,10,26.60
2003,07,28,17,11,26.60
2003,07,28,17,12,26.60
2003,07,28,17,13,26.60
2003,07,28,17,14,26.60
2003,07,28,17,15,26.50
2003,07,28,17,16,26.40
2003,07,28,17,17,26.40
2003,07,28,17,18,26.50
2003,07,28,17,19,26.60